Skagway, AK

7:10 PM AKDT on April 25, 2018 (GMT -0800)
Skagway

Weather History for PAGY - May, 2014

Change the Weather History Date:

Sunday, May 25, 2014

  Actual Average Record
Temperature  
Mean Temperature 50 °F -  
Max Temperature 60 °F 57 °F 73 °F (2006)
Min Temperature 39 °F 42 °F 28 °F (1966)
Degree Days  
Heating Degree Days 16    
Moisture  
Dew Point 37 °F    
Average Humidity 64    
Maximum Humidity 86    
Minimum Humidity 38    
Precipitation  
Precipitation 0.00 in - - ()
Sea Level Pressure  
Sea Level Pressure 29.97 in    
Wind  
Wind Speed 5 mph (SW)    
Max Wind Speed 18 mph    
Max Gust Speed -    
Visibility 10 miles    
Events      
Averages and records for this station are not official NWS values.
T = Trace of Precipitation, MM = Missing Value Source: NWS Daily Summary

Daily Weather History Graph

Daily Weather History Graph

Search for Another Location

Airport or City:

Astronomy

May. 25, 2014 Rise Set
Actual Time 4:06 AM AKDT 9:51 PM AKDT
Civil Twilight 2:56 AM AKDT 11:02 PM AKDT
Nautical Twilight 1:30 AM AKDT 12:25 AM AKDT
Astronomical Twilight Sun does not set Sun does not set
Moon 3:12 AM AKDT (5/25) 6:12 PM AKDT (5/25)
Length of Visible Light 20h 06m
Length of Day
17h 44m
Waning Crescent, 9% of the Moon is Illuminated
May 25
Waning Crescent
May 28
New
Jun 5
First Quarter
Jun 12
Full
Jun 19
Last Quarter

Hourly Weather History & Observations

Time (AKDT) Temp. Windchill Dew Point Humidity Pressure Visibility Wind Dir Wind Speed Gust Speed Precip Events Conditions
12:53 AM 44.1 °F - 36.0 °F 73% 30.06 in 10.0 mi Calm Calm - N/A   Clear
1:53 AM 42.1 °F - 36.0 °F 79% 30.06 in 10.0 mi Calm Calm - N/A   Clear
2:53 AM 39.9 °F 37.8 °F 35.1 °F 83% 30.05 in 10.0 mi NE 3.5 mph - N/A   Clear
3:53 AM 39.0 °F 36.8 °F 35.1 °F 86% 30.06 in 10.0 mi NE 3.5 mph - N/A   Clear
4:53 AM 39.0 °F 36.8 °F 35.1 °F 86% 30.06 in 10.0 mi NE 3.5 mph - N/A   Clear
5:53 AM 39.9 °F 37.8 °F 35.1 °F 83% 30.05 in 10.0 mi NE 3.5 mph - N/A   Clear
7:53 AM 46.0 °F - 39.0 °F 76% 30.02 in 10.0 mi Calm Calm - N/A   Clear
8:53 AM 45.0 °F 42.6 °F 37.9 °F 76% 30.02 in 10.0 mi SW 4.6 mph - N/A   Clear
9:53 AM 46.0 °F 43.9 °F 39.9 °F 79% 30.01 in 10.0 mi SW 4.6 mph - N/A   Clear
10:53 AM 48.9 °F - 39.9 °F 71% 29.99 in 10.0 mi WSW 4.6 mph - N/A   Clear
11:53 AM 52.0 °F - 39.0 °F 61% 29.98 in 10.0 mi SW 9.2 mph - N/A   Clear
12:53 PM 57.9 °F - 37.9 °F 47% 29.95 in 10.0 mi SSW 18.4 mph - N/A   Clear
1:53 PM 57.9 °F - 37.0 °F 46% 29.94 in 10.0 mi SSW 16.1 mph - N/A   Clear
2:53 PM 60.1 °F - 34.0 °F 38% 29.93 in 10.0 mi SSW 16.1 mph - N/A   Clear
3:53 PM 59.0 °F - 39.0 °F 48% 29.91 in 10.0 mi SSW 16.1 mph - N/A   Clear
4:53 PM 57.0 °F - 42.1 °F 57% 29.90 in 10.0 mi SW 12.7 mph - N/A   Clear
5:53 PM 57.9 °F - 41.0 °F 53% 29.88 in 10.0 mi SW 12.7 mph - N/A   Clear
6:53 PM 57.9 °F - 39.0 °F 49% 29.88 in 10.0 mi SW 11.5 mph - N/A   Clear
7:53 PM 55.9 °F - 39.0 °F 53% 29.89 in 10.0 mi SW 8.1 mph - N/A   Clear
8:53 PM 55.9 °F - 36.0 °F 47% 29.90 in 10.0 mi WSW 4.6 mph - N/A   Clear
9:53 PM 51.1 °F - 37.0 °F 59% 29.91 in 10.0 mi NNE 5.8 mph - N/A   Clear
10:53 PM 48.9 °F - 36.0 °F 61% 29.93 in 10.0 mi NE 4.6 mph - N/A   Clear
11:53 PM 48.0 °F - 35.1 °F 61% 29.96 in 10.0 mi Calm Calm - N/A   Clear